Regional Weather Roundup
Issued by NWS Bismarck, ND

Home | Current Version | Previous Version | Text Only | Print | Product List | Glossary On
Versions: 1 2 3 4 5 6 7 8 9 10 11 12 13 14 15 16 17 18 19 20 21 22 23 24 25 26 27 28 29 30 31 32 33 34 35 36 37 38 39 40 41 42 43 44 45 46 47 48 49 50
000
ASUS43 KBIS 181402
RWRBIS

NWR BROADCAST TEXT
NATIONAL WEATHER SERVICE BISMARCK ND
900 AM CDT WED OCT 18 2017

NOTE: "FAIR" INDICATES FEW OR NO CLOUDS BELOW 12,000 FEET WITH NO
SIGNIFICANT WEATHER AND/OR OBSTRUCTIONS TO VISIBILITY.


CITY           SKY/WX    TMP DP  RH WIND       PRES   REMARKS
WILLISTON      CLEAR     42  20  41 W14       29.92R
MINOT          PTCLDY    47  23  38 W18G28    29.81R
MINOT AFB      PTCLDY    44  23  43 W16G26    29.79R
BISMARCK       CLOUDY    51  28  41 NW9       29.91R
DICKINSON      CLOUDY    40  27  59 W8        29.94R
GARRISON         N/A     44  23  43 W15       29.88R
HETTINGER ARPT PTCLDY    38  25  59 NW10      29.98R
JAMESTOWN      CLOUDY    54  34  46 NW18G28   29.81R
CARRINGTON     FAIR      52  30  43 NW24G36   29.82R
HAZEN          FAIR      43  25  49 NW7       29.92R
LINTON           N/A     54  28  37 NW17G24   29.91R
RUGBY          FAIR      45  28  53 W22       29.75R
STANLEY        FAIR      41  19  42 W21G28    29.86R
TIOGA          FAIR      39  19  45 W22       29.87R
WATFORD CITY   FAIR      41  25  52 W8        29.93R
$$

CITY           SKY/WX    TMP DP  RH WIND       PRES   REMARKS
GRAND FORKS    MOCLDY    57  38  48 W17G32    29.69R
GRAND FORKS AF MOCLDY    55  34  45 NW23G38   29.70R
DEVILS LAKE    CLOUDY    48  32  53 W24G30    29.76R
FARGO          PTSUNNY   50  42  74 SW8       29.73R
CANDO          FAIR      46  30  53 W21G28    29.77R
CAVALIER       FAIR      52  32  46 W17G30    29.65R
GRAFTON        FAIR      55  37  50 W22G30    29.68R
GWINNER          N/A     48  37  66 W8        29.79R
LANGDON        FAIR      48  32  53 W23G29    29.67R
ROLLA          FAIR      45  25  45 W29G39    29.68R
WALHALLA       FAIR     N/A N/A N/A W23G37    29.61R
$$

CITY           SKY/WX    TMP DP  RH WIND       PRES   REMARKS
ABERDEEN       CLOUDY    41  37  86 CALM      29.84R
MOBRIDGE       PTCLDY    56  30  37 NW15      29.88R
BUFFALO          N/A     44  27  51 NW15      29.94R
RAPID CITY     CLEAR     49  28  44 N14       30.03R
GLASGOW        CLEAR     38  28  67 W9        29.96R
SIDNEY         PTCLDY    41  25  53 W9        29.97R
WOLF POINT     CLEAR     43  25  49 SW10      29.96S
GLENDIVE       PTCLDY    40  27  59 W8        29.99R
MILES CITY     CLOUDY    38  28  67 W9        30.03R
BAKER          CLOUDY    37  30  75 W9        30.01R
$$

CITY           SKY/WX    TMP DP  RH WIND       PRES   REMARKS
BILLINGS       PTCLDY    43  30  60 S5        30.03R
GREAT FALLS    CLOUDY    48  28  46 SW10      29.97R
$$





USA.gov is the U.S. government's official web portal to all federal, state and local government web resources and services.